Regional Weather Roundup
Issued by NWS

Home | Current Version | Previous Version | Graphics & Text | Print | Product List | Glossary On
Versions: 1 2 3 4 5 6 7 8 9 10 11 12 13 14 15 16 17 18 19 20 21 22 23 24 25 26 27 28 29 30 31 32 33 34 35 36 37 38 39 40 41 42 43 44 45 46 47 48 49 50
000
ASUS45 KBOU 181307
RWRCO

WEATHER ROUNDUP FOR COLORADO
NATIONAL WEATHER SERVICE DENVER/BOULDER CO
700 AM MDT THU SEP 18 2014

NOTE: "FAIR" INDICATES FEW OR NO CLOUDS BELOW 12000 FEET WITH NO
SIGNIFICANT WEATHER AND/OR OBSTRUCTIONS TO VISIBILITY.

COZ001>005-013-030-031-181400-
...NORTHWEST COLORADO...

CITY           SKY/WX    TMP DP  RH WIND       PRES   REMARKS
CRAIG          CLEAR     37  34  89 CALM      30.13S
HAYDEN         CLEAR     46  36  66 SE12      30.15R
MEEKER         NOT AVBL
MOUNT WERNER   NOT AVBL
STEAMBOAT SPGS CLEAR     43  37  80 CALM      30.18R
WALDEN         PTCLDY    34  32  93 SE5       30.27S WCI  30
$$

COZ006>008-011-181400-
...WEST CENTRAL VALLEYS...

CITY           SKY/WX    TMP DP  RH WIND       PRES   REMARKS
GRAND JUNCTION CLEAR     57  40  52 E7        30.03R
MONTROSE       CLEAR     53  42  66 S9        30.12S
EAGLE          CLEAR     43  36  75 CALM      30.24R
RIFLE          CLEAR     49  39  68 S3        30.11R
DELTA          CLEAR     56  42  58 E6        30.09R HAZE
NUCLA          CLEAR     52  41  66 SE7       30.16R
$$

COZ017>023-064>068-181400-
...SOUTHWEST COLORADO...

CITY           SKY/WX    TMP DP  RH WIND       PRES   REMARKS
DURANGO        CLEAR     43  42  97 CALM      30.16S
CORTEZ         CLEAR     45  43  93 NE6       30.12S
PAGOSA SPRINGS CLEAR     43  40  89 CALM      30.23S
TELLURIDE      NOT AVBL
WOLF CREEK PAS CLEAR     43  32  65 NE5       30.50S
$$

COZ009-010-012-014-032>034-037-058>063-181400-
...CENTRAL COLORADO...

CITY           SKY/WX    TMP DP  RH WIND       PRES   REMARKS
ASPEN          CLEAR     46  35  65 SW7       30.24S
BUENA VISTA    CLEAR     47  34  61 NW10      30.28S
COPPER MTN     CLEAR     50  28  43 S16       30.53S
BERTHOUD PASS  FAIR      43  41  93 MISG      30.57S
COTTONWOOD PAS CLEAR     55  32  41 W8        30.39R
GUNNISON       PTCLDY    37  30  75 CALM      30.31R
KREMMLING      CLEAR     36  32  87 CALM      30.29R
LEADVILLE      CLEAR     34  30  85 N5        30.39R WCI  30
SALIDA         CLEAR     47  36  66 W3        30.34R
SUNLIGHT       CLEAR     52  32  46 CALM      30.45R
WILKERSON PASS NOT AVBL
$$

COZ069>075-181400-
...SAN LUIS VALLEY/SANGRE DE CRISTO MOUNTAINS...

CITY           SKY/WX    TMP DP  RH WIND       PRES   REMARKS
ALAMOSA        PTCLDY    36  32  85 CALM      30.24S
LA VETA PASS   NOT AVBL
SAGUACHE       CLEAR     45  34  65 NW12      30.27R
$$

COZ035-036-038>040-181400-
...NORTHERN COLORADO FRONT RANGE...

CITY           SKY/WX    TMP DP  RH WIND       PRES   REMARKS
DENVER INTL AP CLEAR     59  42  53 SW13      30.05R
DMNS CITY PARK   N/A     58  42  56 S3G10     30.05R
AURORA         PTCLDY    55  42  61 S10       30.08R
FRONT RANGE AP CLEAR     61  43  51 SW9       30.06S
ERIE MUNI ARPT CLEAR     47  43  85 SW5       30.04R
BOULDER MUN AP CLEAR     55  43  62 CALM      30.04R
CENTENNIAL     PTCLDY    53  42  66 SE5       30.08S
BROOMFIELD     PTCLDY    59  39  47 CALM      30.07R
FORT COLLINS   CLEAR     52  45  76 N3        30.05R
LONGMONT       CLEAR     49  43  79 CALM      30.05R HAZE
$$

COZ041-046-047-076>085-087-088-181400-
...PIKES PEAK/PALMER DIVIDE AND SOUTHERN FOOTHILLS...

CITY           SKY/WX    TMP DP  RH WIND       PRES   REMARKS
COLO. SPRINGS  PTCLDY    55  38  52 N8        30.12R
A. F. ACADEMY  CLEAR     48  39  71 N9        30.14R
ELLICOTT       NOT AVBL
FALCON         CLEAR     51  38  61 NW5       30.16S
FORT CARSON    CLEAR     56  39  52 NW12      30.09R
LIMON          CLEAR     45  40  82 N6        30.06R
MONUMENT HILL  CLEAR     50  36  57 SW8       30.16R
TRINIDAD       CLEAR     54  34  46 W14       30.09R
$$

COZ042>045-048>051-090-091-181400-
...NORTHEAST COLORADO...

CITY           SKY/WX    TMP DP  RH WIND       PRES   REMARKS
GREELEY ARPT   CLEAR     46  37  71 CALM      30.03S
AKRON          CLEAR     53  44  71 W6        30.02R
BURLINGTON     FOG       53  52  96 CALM      30.00R VSB<1/4
WRAY           CLOUDY   N/A N/A N/A CALM      29.98R FOG
STERLING       CLEAR     48  46  93 CALM      29.98R
HOLYOKE        CLOUDY    66  63  88 SE7       29.98R FOG
FORT MORGAN    CLEAR     49  46  87 W7        30.01R
$$

COZ086-089-092>099-181400-
...SOUTHEAST COLORADO...

CITY           SKY/WX    TMP DP  RH WIND       PRES   REMARKS
PUEBLO         CLEAR     54  40  59 W6        30.02R
LA JUNTA       CLEAR     52  42  69 W9        29.99R
LAMAR          CLEAR     50  46  86 W5        29.96R
SPRINGFIELD      N/A     54  51  90 W5        30.01R
$$



USA.gov is the U.S. government's official web portal to all federal, state and local government web resources and services.